1287190234865,0.000138456
1287190294865,0.000137204
1287190354865,0.000137689
1287190414865,0.000138612
1287190474865,0.000139858
1287193834875,0.000136966
1287193894875,0.000139306
1287193954875,0.000138182
1287194014875,0.000137477
1287194074875,0.000138638
1287197434886,0.000137072
1287197494886,0.000137314
1287197554886,0.000136958
1287197614886,0.000136554
1287197674886,0.000137675
1287201034896,0.000137083
1287201094896,0.000138035
1287201154896,0.000137365
1287201214896,0.000137588
1287201274896,0.000138127
1287204634906,0.000136646
1287204694906,0.000137139
1287204754906,0.000136747
1287204814906,0.000137106
1287204874906,0.000137344
1287208234917,0.000135622
1287208294917,0.000136249
1287208354917,0.000137378
1287208414917,0.000136303
1287208474917,0.000136212
1287208534917,0.000136788
1287208594917,0.000137065
1287208654917,0.000137075
1287208714917,0.000136896
1287208774917,0.000137110
1287208834927,0.000136426
1287208894927,0.000136235
1287208954927,0.000136560
1287209014927,0.000136362
1287209074927,0.000136517
1287209134927,0.000134708
1287209194927,0.000135806
1287209254927,0.000135778
1287209314927,0.000135897
1287209374927,0.000136562
1287209434927,0.000135727
1287209494927,0.000135747
1287209554927,0.000135867
1287209614927,0.000135985
1287209674927,0.000136157
1287209734927,0.000136377
1287209794927,0.000135696
1287209854927,0.000135889
1287209914927,0.000135868
1287209974927,0.000135092
1287210034927,0.000135206
1287210094927,0.000135510
1287210154927,0.000135662
1287210214927,0.000135668
1287210274927,0.000137283
1287210334927,0.000135884
1287210394927,0.000136305
1287210454927,0.000134621
1287210514927,0.000135705
1287210574927,0.000136908
1287210634927,0.000135866
1287210694927,0.000135646
1287210754927,0.000135248
1287210814927,0.000136256
1287210874927,0.000135520
1287210934927,0.000134978
1287210994927,0.000135706
1287211054927,0.000135473
1287211114927,0.000135213
1287211174927,0.000135523
1287211234927,0.000134899
1287211294927,0.000135987
1287211354927,0.000135904
1287211414927,0.000135479
1287211474927,0.000135102
1287211534927,0.000135504
1287211594927,0.000134498
1287211654927,0.000134495
1287211714927,0.000134961
1287211774927,0.000134818
1287211834927,0.000135230
1287211894927,0.000134968
1287211954927,0.000135615
1287212014927,0.000135693
1287212074927,0.000136307
1287212134927,0.000135024
1287212194927,0.000136149
1287212254927,0.000135666
1287212314927,0.000134900
1287212374927,0.000136562
1287212434937,0.000136111
1287212494937,0.000135573
1287212554937,0.000135410
1287212614937,0.000136590
1287212674937,0.000135542
1287212734937,0.000135113
1287212794937,0.000134259
1287212854937,0.000135073
1287212914937,0.000135643
1287212974937,0.000136046
1287213034937,0.000135598
1287213094937,0.000135544
1287213154937,0.000135012
1287213214937,0.000134909
1287213274937,0.000136034
1287213334937,0.000135264
1287213394937,0.000136116
1287213454937,0.000136189
1287213514937,0.000134922
1287213574937,0.000135974
1287213634937,0.000135098
1287213694938,0.000136517
1287213754938,0.000136561
1287213814937,0.000137105
1287213874937,0.000136123
1287213934937,0.000135546
1287213994937,0.000135739
1287214054937,0.000135518
1287214114937,0.000134892
1287214174937,0.000136277
1287214234937,0.000135771
1287214294937,0.000135017
1287214354937,0.000136294
1287214414937,0.000136819
1287214474937,0.000134931
1287214534937,0.000134863
1287214594937,0.000135589
1287214654937,0.000135039
1287214714937,0.000134166
1287214774937,0.000134457
1287214834937,0.000135758
1287214894937,0.000135080
1287214954937,0.000134455
1287215014938,0.000135132
1287215074938,0.000135012
1287215134937,0.000135540
1287215194937,0.000134600
1287215254937,0.000135946
1287215314937,0.000134779
1287215374937,0.000134885
1287215434937,0.000136081
1287215494937,0.000135658
1287215554937,0.000135000
1287215614937,0.000134577
1287215674937,0.000134618
1287215734937,0.000135796
1287215794937,0.000135190
1287215854937,0.000134404
1287215914937,0.000135164
1287215974937,0.000135188
1287216034948,0.000134782
1287216094948,0.000134705
1287216154948,0.000135957
1287216214948,0.000135728
1287216274948,0.000136027
1287216334948,0.000135219
1287216394948,0.000135243
1287216454948,0.000135376
1287216514948,0.000135451
1287216574948,0.000136121
1287216634948,0.000136681
1287216694948,0.000135852
1287216754948,0.000135489
1287216814948,0.000136345
1287216874948,0.000136735
1287216934948,0.000136184
1287216994948,0.000135621
1287217054948,0.000135976
1287217114948,0.000135936
1287217174948,0.000136285
1287217234948,0.000135369
1287217294948,0.000135384
1287217354948,0.000135300
1287217414948,0.000135337
1287217474948,0.000135735
1287217534948,0.000134885
1287217594948,0.000134025
1287217654948,0.000133995
1287217714948,0.000133373
1287217774948,0.000134904
1287217834948,0.000134220
1287217894948,0.000134884
1287217954948,0.000135105
1287218014948,0.000134739
1287218074948,0.000134786
1287218134948,0.000134821
1287218194948,0.000134767
1287218254948,0.000135020
1287218314948,0.000135779
1287218374948,0.000135160
1287218434948,0.000134646
1287218494948,0.000134002
1287218554948,0.000134722
1287218614948,0.000133696
1287218674948,0.000133995
1287218734948,0.000135128
1287218794948,0.000134566
1287218854948,0.000134857
1287218914948,0.000134634
1287218974948,0.000134724
1287219034948,0.000134927
1287219094948,0.000134028
1287219154948,0.000134726
1287219214948,0.000134552
1287219274948,0.000133719
1287222634959,0.000135618
1287222694959,0.000134949
1287222754959,0.000135412
1287222814959,0.000135205
1287222874959,0.000134588
1287226234970,0.000133368
1287226294970,0.000134861
1287226354970,0.000134210
1287226414970,0.000134099
1287226474970,0.000134708
1287229834981,0.000133701
1287229894981,0.000133571
1287229954981,0.000134106
1287230014981,0.000133721
1287230074981,0.000133991
1287233434992,0.000133017
1287233494992,0.000134153
1287233554992,0.000134770
1287233614992,0.000134869
1287233674992,0.000134515
1287237025004,0.000134698
1287237085004,0.000134658
1287237145004,0.000134031
1287237205004,0.000133713
1287237265004,0.000133652
1287240625016,0.000133418
1287240685016,0.000133999
1287240745016,0.000134102
1287240805016,0.000134946
1287240865016,0.000135428
1287244225028,0.000134728
1287244285028,0.000133646
1287244345028,0.000134196
1287244405028,0.000134000
1287244465028,0.000133690
1287247825040,0.000134153
1287247885040,0.000134289
1287247945040,0.000135076
1287248005040,0.000135052
1287248065040,0.000135342
1287251425052,0.000135716
1287251485052,0.000134354
1287251545052,0.000133598
1287251605052,0.000134165
1287251665052,0.000134929
1287255025064,0.000133446
1287255085064,0.000134852
1287255145064,0.000134336
1287255205064,0.000134078
1287255265064,0.000134694
1287258625076,0.000134944
1287258685076,0.000135569
1287258745076,0.000135408
1287258805076,0.000134718
1287258865076,0.000135509
1287262225088,0.000134428
1287262285088,0.000135293
1287262345088,0.000134804
1287262405088,0.000135045
1287262465088,0.000134676
1287265825099,0.000135684
1287265885099,0.000134573
1287265945099,0.000135650
1287266005099,0.000135028
1287266065099,0.000135734
1287269425111,0.000135209
1287269485111,0.000135862
1287269545111,0.000136025
1287269605111,0.000135006
1287269665111,0.000135774
1287273025122,0.000135025
1287273085122,0.000136262
1287273145122,0.000135783
1287273205122,0.000135914
1287273265122,0.000135185
